Location: Bay Ridge
(40.6340°N, 74.0146°W)
Time: 04:46:54
(UTC+00:00)

Cosmos 2360 - Pass Details

Date: 15 November 2019
Orbit: 845 x 857 km, 70.8° (Epoch: 15 December)

Event Time Altitude Azimuth Distance (km) Brightness Sun altitude
Exits shadow 09:26:38 49° 337° (NNW) 1,102 4.6 -25.8°
Maximum altitude 09:28:18 90° 60° (ENE) 863 4.1 -25.4°
Drops below altitude 10° 09:34:02 10° 158° (SSE) 2,481 6.9 -24.4°
Sets 09:36:28 0° 158° (SSE) 3,413 7.7 -23.9°
